Lid_Strength_Index
-0 -0 0 0 0 0 1 2 3 4 3 3 3 2 1 1 1 4 4 2 1 -0 0 4 5 5 5 6 6 5 10 12 10 10 9 7 8 6 5 6 6 4 4 3 2
-0 -0 0 0 0 0 0 0 1 2 3 3 3 3 3 2 3 5 1 0 0 0 4 5 6 6 7 7 7 8 11 10 8 8 9 8 7 7 7 6 6 5 3 2 2
-0 -0 -0 0 0 0 -0 -0 -0 0 1 2 3 3 3 4 9 6 1 1 1 1 3 4 5 7 8 7 7 8 11 8 8 8 8 8 7 6 7 8 6 6 4 4 3
-0 -0 -0 -0 -0 -0 -0 -0 -0 -0 -0 1 2 2 3 6 15 7 3 3 2 3 4 5 6 8 9 10 8 10 8 8 8 8 8 9 7 8 7 7 6 5 3 3 4
0 -0 -0 -0 -0 -0 -0 -0 -0 0 0 0 0 1 4 10 10 6 4 4 6 6 6 6 7 8 10 9 9 10 9 9 8 8 8 8 9 9 8 7 6 6 6 4 3
0 0 -0 -1 -1 -1 -0 -0 0 0 0 -0 -0 0 4 11 5 5 5 5 6 7 8 7 8 7 8 9 10 8 9 9 9 9 9 10 9 9 8 6 7 7 7 6 6
1 0 0 -0 -1 -1 -1 -0 0 0 0 0 0 1 5 7 3 3 5 5 5 7 9 7 7 8 8 10 8 8 11 9 9 9 9 9 11 11 8 7 7 7 7 6 6
0 0 0 -0 -1 -1 -1 -0 -0 0 0 1 1 2 7 3 2 4 4 5 4 5 7 6 6 8 9 9 10 12 11 14 10 9 9 10 15 9 7 8 8 7 7 7 6
1 0 0 0 -0 -0 -0 -0 0 1 1 1 2 4 8 1 5 4 3 5 3 3 5 6 7 10 10 13 14 13 16 14 12 9 10 11 14 9 7 8 8 8 7 7 7
1 1 0 -0 0 0 0 0 1 1 2 1 2 6 5 7 4 4 2 3 4 4 5 6 9 12 12 14 19 16 15 14 15 11 12 13 14 11 9 10 10 8 8 8 8
1 1 1 -0 0 1 1 3 5 6 4 7 6 6 5 3 3 4 3 4 4 6 10 7 10 13 12 12 13 14 15 16 14 13 15 15 14 13 11 11 11 11 9 9 9
1 1 1 1 1 1 2 6 5 5 9 5 5 4 4 3 7 5 3 7 8 10 9 10 12 9 9 10 12 13 15 16 13 12 13 14 15 13 12 12 11 11 11 10 9
2 1 1 1 2 2 3 4 1 3 8 8 6 5 4 3 6 6 4 7 8 10 11 12 10 8 9 11 12 12 13 14 15 12 12 14 16 14 12 11 11 11 11 10 10
2 1 1 1 3 3 5 2 1 2 10 12 9 6 6 6 7 4 4 6 9 11 10 10 9 10 10 11 11 14 10 11 12 14 17 13 20 14 13 13 12 11 10 10 10
2 1 1 1 3 4 3 2 2 4 17 11 9 4 6 9 8 7 4 6 10 10 10 11 11 11 12 11 9 12 9 11 11 13 14 14 16 15 12 13 13 11 10 10 11
2 2 1 2 2 2 1 2 4 11 18 13 9 10 10 9 9 7 7 6 6 9 9 10 8 9 10 9 9 9 10 11 11 12 18 14 14 15 13 12 11 10 10 10 10
3 2 3 2 5 1 1 5 11 15 12 13 13 10 11 11 11 10 10 10 12 14 14 11 11 9 8 11 9 9 12 17 18 18 18 12 14 13 10 10 10 11 10 10 9
3 4 4 3 1 1 3 8 16 15 14 11 11 11 13 11 11 11 11 12 9 11 13 15 16 11 8 9 11 11 12 17 22 19 17 13 16 13 10 9 9 8 10 10 10
4 4 4 3 2 2 7 13 14 14 12 12 12 14 13 12 12 12 12 12 11 10 14 14 15 9 8 7 9 12 14 10 14 15 17 15 12 10 10 11 10 10 10 10 9
5 6 6 3 2 5 9 13 13 11 10 11 15 14 15 13 13 13 13 10 11 10 10 11 15 10 8 8 8 10 8 14 13 20 21 16 15 14 11 11 11 10 9 9 8
6 9 6 3 4 8 13 12 12 10 9 12 13 13 13 14 13 13 13 10 9 9 9 10 12 12 10 11 11 11 12 11 12 14 18 19 16 10 10 9 10 8 8 8 8
8 12 6 4 11 11 13 13 11 10 8 10 10 11 12 12 13 13 13 11 8 8 11 9 11 14 12 8 8 9 11 11 15 16 14 15 15 8 8 8 8 8 8 7 7
11 10 6 6 14 14 13 13 11 11 10 11 11 10 10 12 15 12 11 8 7 9 10 9 12 16 14 11 9 11 10 10 11 11 15 17 15 8 8 8 7 7 7 7 7
11 13 11 10 10 13 14 14 14 10 10 9 10 9 11 12 11 13 12 9 8 8 7 8 12 14 17 14 11 13 11 10 11 15 15 14 13 10 9 8 7 6 5 5 6
11 12 10 14 13 13 12 13 14 14 10 10 11 10 11 14 13 13 11 10 9 8 9 9 14 12 11 11 11 11 12 11 12 12 15 13 12 10 8 8 7 6 5 5 5
10 11 13 11 12 12 12 13 14 13 12 13 12 10 10 12 11 13 11 11 11 10 10 9 13 12 15 11 11 12 11 11 11 11 11 11 12 8 6 6 6 6 6 6 5
10 10 10 11 11 13 12 12 12 11 11 10 10 11 11 9 8 8 7 8 8 11 11 11 12 14 17 13 13 17 13 11 11 10 10 13 10 7 8 7 7 6 6 6 5